This demonstration page uses our WeatherBlox Daily Observations layout. Learn more.

Left ArrowRight Arrow

39.51506, -84.39828

Hourly Observations for March 22, 2016

Temp ( °F °C ) Dew Point ( °F °C ) Humidity (%) Winds ( mph kmh ) Pressure ( in mb ) Visibility ( mi km ) Precip ( " mm )
12:15 am 00:15 Clear 37 2.6 31 -0.5 80 80 Calm 30.18 1022 10 16 0.00 0.00
12:35 am 00:35 Clear 35 1.6 29 -1.5 80 80 Calm 30.18 1022 10 16 0.00 0.00
12:55 am 00:55 Clear 34 1.2 29 -1.4 83 83 Calm 30.18 1022 10 16 0.00 0.00
1:15 am 01:15 Clear 34 1.2 29 -1.7 81 81 Calm 30.18 1022 10 16 0.00 0.00
1:35 am 01:35 Clear 34 1.2 29 -1.5 82 82 Calm 30.18 1022 10 16 0.00 0.00
1:55 am 01:55 Clear 34 1.2 29 -1.4 83 83 Calm 30.18 1022 10 16 0.00 0.00
2:15 am 02:15 Clear 34 1.2 29 -1.4 83 83 Calm 30.18 1022 10 16 0.00 0.00
2:35 am 02:35 Clear 34 1.2 29 -1.5 82 82 Calm 30.18 1022 10 16 0.00 0.00
2:55 am 02:55 Clear 34 1.2 30 -1.2 84 84 Calm 30.18 1022 10 16 0.00 0.00
3:15 am 03:15 Clear 34 1.2 30 -1 85 85 Calm 30.18 1022 10 16 0.00 0.00
3:35 am 03:35 Clear 34 1.2 30 -1 85 85 Calm 30.18 1022 10 16 0.00 0.00
3:55 am 03:55 Clear 34 1.2 30 -1 85 85 Calm 30.18 1022 10 16 0.00 0.00
4:15 am 04:15 Clear 34 1.2 31 -0.8 87 87 Calm 30.15 1021 10 16 0.00 0.00
4:35 am 04:35 Clear 34 1.2 31 -0.7 87 87 Calm 30.15 1021 10 16 0.00 0.00
4:55 am 04:55 Clear 34 1.2 31 -0.6 88 88 Calm 30.15 1021 10 16 0.00 0.00
5:15 am 05:15 Clear 34 1.2 31 -0.8 87 87 Calm 30.15 1021 10 16 0.00 0.00
5:35 am 05:35 Clear 34 1.2 31 -0.7 87 87 Calm 30.15 1021 10 16 0.00 0.00
5:55 am 05:55 Clear 34 1.2 31 -0.7 87 87 Calm 30.15 1021 10 16 0.00 0.00
6:15 am 06:15 Clear 34 1.2 30 -1 85 85 Calm 30.15 1021 10 16 0.00 0.00
6:35 am 06:35 Clear 34 1.2 31 -0.8 87 87 Calm 30.15 1021 10 16 0.00 0.00
6:55 am 06:55 Clear 34 1.2 31 -0.7 87 87 Calm 30.12 1020 10 16 0.00 0.00
7:15 am 07:15 Clear 35 1.9 30 -1 81 81 S 6 9 30.12 1020 10 16 0.00 0.00
7:35 am 07:35 Clear 39 4 30 -0.9 71 71 S 6 9 30.12 1020 10 16 0.00 0.00
7:55 am 07:55 Sunny 39 4 30 -1.3 69 69 S 8 13 30.12 1020 10 16 0.00 0.00
8:15 am 08:15 Sunny 39 4 29 -1.6 67 67 S 7 11 30.12 1020 10 16 0.00 0.00
8:35 am 08:35 Sunny 41 5 29 -1.5 63 63 SSW 9 15 30.09 1019 10 16 0.00 0.00
8:55 am 08:55 Sunny 42 5.8 30 -1.3 61 61 S 7 11 30.09 1019 10 16 0.00 0.00
9:15 am 09:15 Sunny 44 6.6 30 -1.3 57 57 SSW 12 19 30.09 1019 10 16 0.00 0.00
9:35 am 09:35 Sunny 47 8.2 31 -0.3 55 55 SSW 12 19 30.09 1019 10 16 0.00 0.00
9:55 am 09:55 Sunny 49 9.6 32 0 52 52 SSW 14 22 30.06 1018 10 16 0.00 0.00
10:15 am 10:15 Sunny 49 9.6 31 -0.6 49 49 SSW 13 20 30.06 1018 10 16 0.00 0.00
10:35 am 10:35 Sunny 51 10.3 30 -0.9 46 46 SSW 12 19 30.06 1018 10 16 0.00 0.00
10:55 am 10:55 Sunny 55 12.5 32 -0.2 42 42 SSW 12 19 30.06 1018 10 16 0.00 0.00
11:15 am 11:15 Sunny 55 12.5 29 -1.5 38 38 SW 17 28 30.06 1018 10 16 0.00 0.00
11:35 am 11:35 Sunny 56 13.2 29 -1.5 36 36 SSW 16 26 30.03 1017 10 16 0.00 0.00
11:55 am 11:55 Sunny 57 13.8 29 -1.8 34 34 SW 14 22 30.03 1017 10 16 0.00 0.00
12:15 pm 12:15 Sunny 60 15.3 29 -1.6 32 32 SW 17 28 30.03 1017 10 16 0.00 0.00
12:35 pm 12:35 Sunny 60 15.3 28 -2.1 30 30 SSW 17 28 29.97 1015 10 16 0.00 0.00
12:55 pm 12:55 Sunny 60 15.3 27 -3 28 28 SW 20 31 29.97 1015 10 16 0.00 0.00
1:15 pm 13:15 Sunny 60 15.3 26 -3.2 28 28 SW 18 30 29.97 1015 10 16 0.00 0.00
1:35 pm 13:35 Sunny 61 16.3 24 -4.2 24 24 WSW 25 41 29.94 1014 10 16 0.00 0.00
1:55 pm 13:55 Sunny 62 16.9 25 -3.9 24 24 SW 21 33 29.94 1014 10 16 0.00 0.00
2:15 pm 14:15 Sunny 62 16.6 24 -4.5 23 23 SSW 18 30 29.94 1014 10 16 0.00 0.00
2:35 pm 14:35 Sunny 61 16 25 -3.8 26 26 SSW 18 30 29.91 1013 10 16 0.00 0.00
2:55 pm 14:55 Sunny 61 16 24 -4.2 25 25 SW 23 37 29.91 1013 10 16 0.00 0.00
3:15 pm 15:15 Sunny 63 17.2 24 -4.5 22 22 SSW 22 35 29.91 1013 10 16 0.00 0.00
3:35 pm 15:35 Sunny 64 18 24 -4.3 22 22 SSW 23 37 29.88 1012 10 16 0.00 0.00
3:55 pm 15:55 Sunny 67 19.5 24 -4.2 20 20 SSW 24 39 29.88 1012 10 16 0.00 0.00
4:15 pm 16:15 Sunny 67 19.5 24 -4.4 20 20 SSW 21 33 29.85 1011 10 16 0.00 0.00
4:35 pm 16:35 Sunny 67 19.5 24 -4.5 19 19 SSW 22 35 29.85 1011 10 16 0.00 0.00
4:55 pm 16:55 Sunny 67 19.5 23 -4.8 19 19 SSW 22 35 29.85 1011 10 16 0.00 0.00
5:15 pm 17:15 Sunny 67 19.5 23 -5.1 19 19 SSW 25 41 29.85 1011 10 16 0.00 0.00
5:35 pm 17:35 Sunny 67 19.5 24 -4.6 19 19 SSW 23 37 29.83 1010 10 16 0.00 0.00
5:55 pm 17:55 Sunny 69 20.8 23 -4.8 17 17 SSW 20 31 29.83 1010 10 16 0.00 0.00
6:15 pm 18:15 Sunny 67 19.5 22 -5.8 18 18 SSW 21 33 29.83 1010 10 16 0.00 0.00
6:35 pm 18:35 Sunny 64 18 19 -7 18 18 SW 17 28 29.83 1010 10 16 0.00 0.00
6:55 pm 18:55 Sunny 64 18 20 -6.5 18 18 SSW 16 26 29.83 1010 10 16 0.00 0.00
7:15 pm 19:15 Sunny 64 17.9 20 -6.6 18 18 SSW 17 28 29.83 1010 10 16 0.00 0.00
7:35 pm 19:35 Sunny 63 17.2 19 -7 19 19 SSW 20 31 29.83 1010 10 16 0.00 0.00
7:55 pm 19:55 Clear 63 17 20 -6.5 20 20 SSW 18 30 29.83 1010 10 16 0.00 0.00
8:15 pm 20:15 Clear 63 17 20 -6.7 19 19 SSW 16 26 29.83 1010 10 16 0.00 0.00
8:35 pm 20:35 Clear 62 16.6 20 -6.5 20 20 SSW 16 26 29.83 1010 10 16 0.00 0.00
8:55 pm 20:55 Clear 62 16.9 20 -6.6 20 20 SSW 17 28 29.83 1010 10 16 0.00 0.00
9:15 pm 21:15 Clear 62 16.8 19 -7 19 19 SSW 18 30 29.83 1010 10 16 0.00 0.00
9:35 pm 21:35 Clear 62 16.8 19 -7.2 19 19 SSW 16 26 29.83 1010 10 16 0.00 0.00
9:55 pm 21:55 Clear 62 16.6 19 -7.2 19 19 SSW 17 28 29.83 1010 10 16 0.00 0.00
10:15 pm 22:15 Clear 62 16.6 19 -7.2 19 19 SSW 17 28 29.83 1010 10 16 0.00 0.00
10:35 pm 22:35 Clear 62 16.5 20 -6.4 20 20 SSW 16 26 29.83 1010 10 16 0.00 0.00
10:55 pm 22:55 Clear 61 16.2 21 -6.2 21 21 SSW 14 22 29.85 1011 10 16 0.00 0.00
11:15 pm 23:15 Clear 61 16 22 -5.6 22 22 SW 14 22 29.85 1011 10 16 0.00 0.00
11:35 pm 23:35 Clear 61 16 22 -5.6 22 22 SW 16 26 29.85 1011 10 16 0.00 0.00
11:55 pm 23:55 Clear 60 15.4 23 -5 24 24 SW 15 24 29.85 1011 10 16 0.00 0.00

Powered by AerisWeather